This demonstration page uses our WeatherBlox Daily Observations layout. Learn more.

Left ArrowRight Arrow

41.86663, -103.66717

Hourly Observations for November 9, 2020

Temp ( °F °C ) Dew Point ( °F °C ) Humidity (%) Winds ( mph kmh ) Pressure ( in mb ) Visibility ( mi km ) Precip ( " mm )
12:53 am 00:53 Cloudy 35 1.7 32 0 89 89 Calm 29.75 1007 10 16 0.01 0.25
1:53 am 01:53 Cloudy 33 0.6 29 -1.7 85 85 NE 13 20 29.76 1008 10 16 0.00 0.00
2:53 am 02:53 Cloudy 31 -0.6 27 -2.8 85 85 N 10 17 29.81 1010 10 16 0.00 0.00
3:06 am 03:06 Cloudy with Light Snow 30 -1 27 -3 86 86 N 10 17 29.96 1014 6 10 0.00 0.00
3:15 am 03:15 Cloudy with Light Snow 30 -1.1 26 -3.3 85 85 NNE 14 22 29.94 1014 2 3 0.00 0.00
3:33 am 03:33 Cloudy with Light Snow 30 -1.1 27 -2.8 88 88 N 10 17 29.94 1014 2 3 0.00 0.00
3:41 am 03:41 Cloudy with Light Snow 30 -1.1 27 -2.8 88 88 NE 7 11 29.94 1014 2 2 0.01 0.25
3:53 am 03:53 Cloudy with Light Snow 30 -1.1 28 -2.2 92 92 VRB 3 6 29.84 1010 2 2 0.02 0.51
3:57 am 03:57 Cloudy with Light Snow 30 -1.1 28 -2.2 92 92 NW 5 7 29.96 1014 2 3 0.00 0.00
4:11 am 04:11 Cloudy with Light Snow 29 -1.7 27 -2.8 92 92 NNW 9 15 29.98 1015 4 6 0.00 0.00
4:26 am 04:26 Cloudy with Light Snow 29 -1.7 25 -3.9 85 85 NNE 10 17 29.99 1016 3 4 0.00 0.00
4:31 am 04:31 Cloudy with Light Snow 29 -1.7 26 -3.3 89 89 NNE 8 13 29.99 1016 2 3 0.01 0.25
4:40 am 04:40 Cloudy with Light Snow 28 -2 27 -3 93 93 N 9 15 29.98 1015 2 3 0.00 0.00
4:43 am 04:43 Cloudy with Light Snow 29 -1.7 26 -3.3 89 89 NNW 10 17 29.99 1016 3 5 0.01 0.25
4:53 am 04:53 Cloudy with Light Snow 28 -2.2 25 -3.9 88 88 NNE 10 17 29.89 1012 4 6 0.02 0.51
5:02 am 05:02 Cloudy with Light Snow 28 -2.2 25 -3.9 88 88 NNE 5 7 30.00 1016 2 3 0.00 0.00
5:23 am 05:23 Cloudy with Light Snow 28 -2.2 26 -3.3 92 92 N 5 7 30.02 1016 3 4 0.00 0.00
5:31 am 05:31 Cloudy with Light Snow 28 -2.2 26 -3.3 92 92 N 6 9 30.02 1016 3 5 0.01 0.25
5:40 am 05:40 Cloudy with Light Snow 28 -2 27 -3 93 93 NNE 3 6 30.01 1016 2 3 0.00 0.00
5:53 am 05:53 Cloudy with Light Snow 28 -2.2 26 -3.3 92 92 N 3 6 29.92 1013 3 5 0.01 0.25
6:01 am 06:01 Cloudy with Light Snow 28 -2.2 26 -3.3 92 92 NNE 6 9 30.03 1017 3 4 0.01 0.25
6:31 am 06:31 Cloudy with Light Snow 28 -2.2 25 -3.9 88 88 NE 9 15 30.02 1016 3 5 0.01 0.25
6:42 am 06:42 Cloudy with Light Snow 28 -2.2 26 -3.3 92 92 NNE 6 9 30.03 1017 3 4 0.02 0.51
6:47 am 06:47 Cloudy with Light Snow 28 -2 27 -3 93 93 N 5 7 30.03 1017 1 1 0.02 0.51
6:53 am 06:53 Cloudy with Snow 28 -2.2 26 -3.3 92 92 NNE 5 7 29.95 1014 1 1 0.02 0.51
7:00 am 07:00 Cloudy with Snow 28 -2.2 26 -3.3 92 92 NE 3 6 30.05 1017 1 1 0.01 0.25
7:08 am 07:08 Cloudy with Light Snow 27 -2.8 26 -3.3 96 96 Calm 30.07 1018 1 1 0.01 0.25
7:14 am 07:14 Cloudy with Light Snow 27 -2.8 26 -3.3 96 96 Calm 30.07 1018 1 2 0.01 0.25
7:22 am 07:22 Cloudy with Light Snow 28 -2 25 -4 86 86 N 3 6 30.05 1018 2 3 0.00 0.00
7:33 am 07:33 Cloudy with Light Snow 27 -2.8 24 -4.4 89 89 N 6 9 30.08 1018 4 6 0.02 0.51
7:44 am 07:44 Cloudy with Light Snow 27 -3 25 -4 93 93 N 5 7 30.09 1019 3 4 0.00 0.00
7:53 am 07:53 Cloudy with Light Snow 27 -2.8 24 -4.4 89 89 N 3 6 29.99 1016 8 13 0.02 0.51
8:53 am 08:53 Cloudy 28 -2.2 23 -5 81 81 N 8 13 30.00 1016 10 16 0.00 0.00
9:53 am 09:53 Cloudy 28 -2.2 21 -6.1 75 75 N 10 17 30.02 1017 10 16 0.00 0.00
10:53 am 10:53 Cloudy 28 -2.2 20 -6.7 72 72 N 10 17 30.02 1017 10 16 0.00 0.00
11:53 am 11:53 Cloudy 28 -2.2 19 -7.2 69 69 NW 10 17 30.02 1017 10 16 0.00 0.00
12:53 pm 12:53 Cloudy 28 -2.2 18 -7.8 66 66 NNW 10 17 30.00 1016 10 16 0.00 0.00
1:53 pm 13:53 Cloudy 29 -1.7 19 -7.2 66 66 NW 8 13 29.98 1015 10 16 0.00 0.00
2:53 pm 14:53 Cloudy 29 -1.7 19 -7.2 66 66 Calm 29.99 1016 10 16 0.00 0.00
3:28 pm 15:28 Cloudy with Light Snow 28 -2 21 -6 74 74 Calm 30.08 1019 2 3 0.00 0.00
3:41 pm 15:41 Cloudy with Light Snow 27 -2.8 23 -5 85 85 Calm 30.10 1019 1 1 0.00 0.00
3:51 pm 15:51 Mostly Cloudy with Snow 27 -3 25 -4 93 93 W 3 6 30.10 1019 1 1 0.01 0.25
3:53 pm 15:53 Mostly Cloudy with Snow 27 -2.8 24 -4.4 89 89 Calm 30.02 1017 1 1 0.01 0.25
4:34 pm 16:34 Cloudy with Light Snow 27 -2.8 25 -3.9 92 92 Calm 30.10 1019 1 2 0.02 0.51
4:45 pm 16:45 Cloudy with Light Snow 27 -2.8 25 -3.9 92 92 Calm 30.10 1019 3 5 0.02 0.51
4:53 pm 16:53 Cloudy with Light Snow 27 -2.8 25 -3.9 92 92 Calm 30.02 1017 5 8 0.02 0.51
5:53 pm 17:53 Cloudy with Light Snow 27 -2.8 25 -3.9 92 92 SSW 6 9 30.04 1017 3 5 0.01 0.25
6:16 pm 18:16 Cloudy with Light Snow 27 -2.8 25 -3.9 92 92 SSW 6 9 30.12 1020 3 4 0.00 0.00
6:21 pm 18:21 Cloudy with Light Snow 27 -2.8 25 -3.9 92 92 SSW 5 7 30.12 1020 2 3 0.00 0.00
6:53 pm 18:53 Cloudy with Light Snow 27 -2.8 25 -3.9 92 92 NW 5 7 30.03 1017 2 2 0.01 0.25
7:04 pm 19:04 Cloudy with Light Snow 27 -2.8 25 -3.9 92 92 NW 3 6 30.11 1020 2 3 0.01 0.25
7:14 pm 19:14 Cloudy with Light Snow 27 -2.8 25 -3.9 92 92 NW 5 7 30.11 1020 3 5 0.01 0.25
7:40 pm 19:40 Cloudy with Light Snow 27 -2.8 25 -3.9 92 92 W 6 9 30.11 1020 3 4 0.01 0.25
7:53 pm 19:53 Cloudy with Light Snow 27 -2.8 25 -3.9 92 92 W 5 7 30.04 1017 3 4 0.01 0.25
7:59 pm 19:59 Cloudy with Light Snow 27 -2.8 25 -3.9 92 92 WNW 6 9 30.10 1019 3 5 0.00 0.00
8:26 pm 20:26 Cloudy with Light Snow 27 -2.8 25 -3.9 92 92 NW 6 9 30.10 1019 2 3 0.00 0.00
8:43 pm 20:43 Cloudy with Light Snow 27 -2.8 24 -4.4 89 89 WNW 7 11 30.10 1019 3 4 0.01 0.25
8:53 pm 20:53 Cloudy with Light Snow 27 -2.8 25 -3.9 92 92 WNW 7 11 30.02 1017 2 3 0.01 0.25
9:31 pm 21:31 Cloudy with Light Snow 27 -2.8 25 -3.9 92 92 W 5 7 30.09 1019 3 5 0.00 0.00
9:53 pm 21:53 Cloudy with Light Snow 27 -2.8 25 -3.9 92 92 NW 3 6 30.00 1016 4 6 0.00 0.00
10:23 pm 22:23 Cloudy with Light Snow 27 -2.8 25 -3.9 92 92 WNW 7 11 30.06 1018 2 3 0.00 0.00
10:35 pm 22:35 Cloudy with Light Snow 27 -2.8 25 -3.9 92 92 WNW 6 9 30.05 1017 3 5 0.00 0.00
10:53 pm 22:53 Cloudy with Light Snow 26 -3.3 25 -3.9 96 96 NW 7 11 29.97 1015 8 13 0.00 0.00
11:53 pm 23:53 Cloudy 27 -2.8 25 -3.9 92 92 WNW 3 6 29.95 1014 10 16 0.00 0.00

Powered by AerisWeather